Flag for Afghanistan Weather past 2 weeks in Mazari Sharif, Afghanistan

Now
82 °F

Partly sunny.


Feels Like: 81 °F
Forecast: 72 / 98 °F
Wind: 5 mph from West

Location: Termez Airport

Current Time: May 28, 2015 at 7:52:20 PM

Latest Report: May 28, 2015 at 7:00 PM


Visibility: N/A

Pressure: 29.65 "Hg

Humidity: 28%

Dew point: 46 °F

Location of Mazari SharifLocation

Historic Weather in Mazari Sharif — Graph

°F

Mazari Sharif temperature yesterday

Maximum temperature yesterday: 95 °F (at 3:00 PM)
Minimum temperature yesterday: 61 °F (at 4:30 AM)
Average temperature yesterday: 79 °F

Past Weeks' High & Low Weather Summary

 TemperatureHumidityPressure
High100 °F (May 15, 2:00 PM)78% (May 14, 5:30 AM)30.15 "Hg (May 14, 5:30 AM)
Low55 °F (May 26, 4:00 AM)9% (May 28, 2:30 PM)29.65 "Hg (May 28, 2:30 PM)
Average79 °F31%29.90 "Hg
* Reported May 13 6:30 PM — May 28 6:30 PM, Mazari Sharif, Weather by CustomWeather, © 2015

Note: Actual official high and low records may vary slightly from our data, if they occured in-between our weather recording intervals... More about our weather records

Advertising

Mazari Sharif weather history for previous 24 hours

 ConditionsComfort  
Time TempWeatherWind HumidityBarometerVisibility
6:30 PM
Thu, May 28
84 °FPartly sunny.6 mph27%29.65 "HgN/A
6:00 PM88 °FSunny.3 mph22%29.65 "Hg10 mi
5:30 PM90 °FSunny.5 mph21%29.65 "Hg10 mi
5:00 PM90 °FSunny.6 mph15%29.65 "Hg10 mi
4:30 PM91 °FSunny.6 mph14%29.65 "Hg10 mi
4:00 PM95 °FSunny.6 mph11%29.65 "Hg10 mi
3:30 PM95 °FPassing clouds.7 mph10%29.65 "HgN/A
3:00 PM97 °FPassing clouds.3 mph10%29.65 "HgN/A
2:30 PM97 °FSunny.3 mph9%29.65 "Hg10 mi
2:00 PM97 °FSunny.3 mph11%29.68 "Hg10 mi
1:30 PM97 °FPassing clouds.5 mph10%29.68 "HgN/A
1:00 PM97 °FSunny.3 mph10%29.71 "Hg10 mi
12:30 PM97 °FSunny.5 mph11%29.71 "Hg10 mi
12:00 PM93 °FPassing clouds.2 mph10%29.71 "HgN/A
11:30 AM95 °FSunny.2 mph11%29.74 "Hg10 mi
10:30 AM91 °FSunny.3 mph16%29.74 "Hg10 mi
10:00 AM88 °FPassing clouds.2 mph19%29.74 "HgN/A
9:30 AM90 °FPassing clouds.3 mph17%29.74 "HgN/A
9:00 AM86 °FSunny.2 mph20%29.74 "Hg10 mi
8:30 AM84 °FSunny.No wind22%29.74 "Hg10 mi
7:30 AM75 °FPassing clouds.2 mph39%29.77 "HgN/A
7:00 AM73 °FPassing clouds.3 mph38%29.77 "HgN/A
6:30 AM72 °FPassing clouds.5 mph44%29.74 "HgN/A
5:30 AM64 °FSunny.6 mph52%29.74 "Hg10 mi
4:30 AM63 °FClear.6 mph52%29.74 "Hg10 mi
3:30 AM61 °FClear.6 mph55%29.74 "Hg10 mi
3:00 AM64 °FClear.6 mph46%29.74 "Hg10 mi
2:30 AM64 °FClear.6 mph46%29.74 "Hg10 mi
1:30 AM66 °FClear.7 mph37%29.74 "Hg10 mi
1:00 AM68 °FClear.5 mph35%29.77 "Hg10 mi
12:30 AM68 °FClear.7 mph35%29.77 "Hg10 mi
12:00 AM68 °FClear.5 mph35%29.77 "Hg10 mi
11:30 PM
Wed, May 27
70 °FClear.6 mph33%29.77 "Hg10 mi
11:00 PM70 °FPassing clouds.5 mph31%29.77 "HgN/A
10:30 PM72 °FClear.5 mph33%29.77 "Hg10 mi
10:00 PM73 °FClear.1 mph31%29.77 "Hg10 mi
9:30 PM75 °FClear.2 mph29%29.80 "Hg10 mi
9:00 PM75 °FClear.No wind31%29.80 "Hg10 mi
8:30 PM77 °FClear.No wind32%29.77 "Hg10 mi
8:00 PM81 °FClear.No wind23%29.77 "Hg10 mi
7:30 PM82 °FClear.No wind20%29.77 "Hg10 mi
7:00 PM84 °FSunny.3 mph18%29.77 "Hg10 mi
Weather by CustomWeather, © 2015

See weather overviewHow to use our weather pages